Home > Weather > Grudziądz > Past weeks

Flag for Poland Past Weather in Grudziądz, Poland — Yesterday and Last 2 Weeks

Now
68 °F

Overcast.


Feels Like: 68 °F
Forecast: 60 / 78 °F
Wind: 3 mph from South

Location: Torun

Current Time: Jul 30, 2016 at 11:34:04 AM

Latest Report: Jul 30, 2016 at 10:00 AM


Visibility: 8 mi

Pressure: 29.88 "Hg

Humidity: 81%

Dew Point: 62 °F

Location of GrudziądzLocation

Past Weather in Grudziądz — Graph

°F

Grudziądz Temperature Yesterday

Maximum temperature yesterday: 78 °F (at 11:00 AM)
Minimum temperature yesterday: 58 °F (at 5:00 AM)
Average temperature yesterday: 68 °F

High & Low Weather Summary for the Past Weeks

 TemperatureHumidityPressure
High86 °F (Jul 26, 3:00 PM)97% (Jul 20, 6:00 AM)30.21 "Hg (Jul 20, 6:00 AM)
Low48 °F (Jul 22, 4:00 AM)29% (Jul 21, 5:00 PM)29.83 "Hg (Jul 29, 6:00 PM)
Average67 °F73%30.04 "Hg
* Reported Jul 15 10:00 AM — Jul 30 10:00 AM, Grudziądz, Weather by CustomWeather, © 2016

Note: Actual official high and low records may vary slightly from our data, if they occured in-between our weather recording intervals... More about our weather records

Advertising

Grudziądz Weather History for the Previous 24 Hours

Scroll right to see more
 ConditionsComfort  
Time TempWeatherWind HumidityBarometerVisibility
10:00 AM
Sat, Jul 30
68 °FOvercast.3 mph81%29.88 "Hg8 mi
9:00 AM67 °FSprinkles. Overcast.2 mph85%29.88 "Hg6 mi
8:00 AM67 °FOvercast.2 mph82%29.88 "Hg9 mi
7:00 AM64 °FFog.1 mph91%29.87 "Hg6 mi
6:00 AM60 °FFog.1 mph97%29.87 "Hg2 mi
5:00 AM59 °FFog.No wind97%29.86 "Hg2 mi
4:00 AM59 °FFog.No wind96%29.87 "Hg2 mi
3:00 AM60 °FFog.No wind95%29.87 "Hg2 mi
2:00 AM60 °FFog.No wind95%29.88 "Hg2 mi
1:00 AM61 °FFog.1 mph92%29.87 "Hg3 mi
12:00 AM63 °FFog.1 mph92%29.87 "Hg3 mi
11:00 PM
Fri, Jul 29
65 °FPassing clouds.No wind87%29.87 "Hg7 mi
10:00 PM66 °FPassing clouds.1 mph89%29.86 "Hg9 mi
9:00 PM67 °FPassing clouds.No wind86%29.86 "Hg9 mi
8:00 PM72 °FScattered clouds.1 mph71%29.84 "Hg25 mi
7:00 PM74 °FPartly sunny.1 mph72%29.84 "Hg17 mi
6:00 PM74 °FPartly sunny.1 mph69%29.83 "Hg15 mi
5:00 PM74 °FPartly sunny.1 mph70%29.85 "Hg14 mi
4:00 PM70 °FPartly sunny.1 mph82%29.86 "Hg10 mi
3:00 PM66 °FLight rain. Overcast.1 mph93%29.86 "Hg6 mi
2:00 PM63 °FLight rain. Overcast.1 mph93%29.89 "Hg5 mi
1:00 PM64 °FThundershowers. Overcast.1 mph91%29.89 "Hg7 mi
12:00 PM76 °FOvercast.2 mph60%29.87 "Hg14 mi
11:00 AM78 °FPartly sunny.2 mph53%29.88 "Hg22 mi
Weather by CustomWeather, © 2016

See weather overviewHow to use our weather pages